Year,Month,Day,Hour,Minute,Value (Times are PST for temperature in C)
2006,04,23,00,00,6.80
2006,04,23,00,01,6.70
2006,04,23,00,02,6.70
2006,04,23,00,03,6.70
2006,04,23,00,04,6.60
2006,04,23,00,05,6.60
2006,04,23,00,06,6.60
2006,04,23,00,07,6.60
2006,04,23,00,08,6.60
2006,04,23,00,09,6.60
2006,04,23,00,10,6.40
2006,04,23,00,11,6.40
2006,04,23,00,12,6.40
2006,04,23,00,13,6.40
2006,04,23,00,14,6.30
2006,04,23,00,15,6.20
2006,04,23,00,16,6.20
2006,04,23,00,17,6.20
2006,04,23,00,18,6.20
2006,04,23,00,19,6.20
2006,04,23,00,20,6.20
2006,04,23,00,21,6.20
2006,04,23,00,22,6.20
2006,04,23,00,23,6.20
2006,04,23,00,24,6.20
2006,04,23,00,25,6.20
2006,04,23,00,26,6.30
2006,04,23,00,27,6.30
2006,04,23,00,28,6.30
2006,04,23,00,29,6.30
2006,04,23,00,30,6.30
2006,04,23,00,31,6.40
2006,04,23,00,32,6.40
2006,04,23,00,33,6.40
2006,04,23,00,34,6.40
2006,04,23,00,35,6.40
2006,04,23,00,36,6.40
2006,04,23,00,37,6.40
2006,04,23,00,38,6.40
2006,04,23,00,39,6.40
2006,04,23,00,40,6.40
2006,04,23,00,41,6.40
2006,04,23,00,42,6.40
2006,04,23,00,43,6.40
2006,04,23,00,44,6.40
2006,04,23,00,45,6.40
2006,04,23,00,46,6.40
2006,04,23,00,47,6.40
2006,04,23,00,48,6.40
2006,04,23,00,49,6.40
2006,04,23,00,50,6.60
2006,04,23,00,51,6.60
2006,04,23,00,52,6.60
2006,04,23,00,53,6.60
2006,04,23,00,54,6.60
2006,04,23,00,55,6.60
2006,04,23,00,56,6.60
2006,04,23,00,57,6.60
2006,04,23,00,58,6.70
2006,04,23,00,59,6.70
2006,04,23,01,00,6.80
2006,04,23,01,01,6.90
2006,04,23,01,02,7.00
2006,04,23,01,03,7.00
2006,04,23,01,04,7.10
2006,04,23,01,05,7.10
2006,04,23,01,06,7.10
2006,04,23,01,07,7.20
2006,04,23,01,08,7.20
2006,04,23,01,09,7.20
2006,04,23,01,10,7.20
2006,04,23,01,11,7.20
2006,04,23,01,12,7.20
2006,04,23,01,13,7.10
2006,04,23,01,14,7.10
2006,04,23,01,15,7.10
2006,04,23,01,16,7.00
2006,04,23,01,17,7.00
2006,04,23,01,18,6.90
2006,04,23,01,19,6.80
2006,04,23,01,20,6.80
2006,04,23,01,21,6.70
2006,04,23,01,22,6.60
2006,04,23,01,23,6.50
2006,04,23,01,24,6.40
2006,04,23,01,25,6.30
2006,04,23,01,26,6.20
2006,04,23,01,27,6.20
2006,04,23,01,28,6.20
2006,04,23,01,29,6.10
2006,04,23,01,30,6.10
2006,04,23,01,31,6.10
2006,04,23,01,32,6.00
2006,04,23,01,33,6.00
2006,04,23,01,34,6.00
2006,04,23,01,35,5.90
2006,04,23,01,36,5.90
2006,04,23,01,37,5.80
2006,04,23,01,38,5.80
2006,04,23,01,39,5.80
2006,04,23,01,40,5.90
2006,04,23,01,41,6.00
2006,04,23,01,42,6.00
2006,04,23,01,43,6.10
2006,04,23,01,44,6.10
2006,04,23,01,45,6.10
2006,04,23,01,46,6.20
2006,04,23,01,47,6.20
2006,04,23,01,48,6.20
2006,04,23,01,49,6.20
2006,04,23,01,50,6.20
2006,04,23,01,51,6.30
2006,04,23,01,52,6.30
2006,04,23,01,53,6.20
2006,04,23,01,54,6.20
2006,04,23,01,55,6.20
2006,04,23,01,56,6.20
2006,04,23,01,57,6.20
2006,04,23,01,58,6.20
2006,04,23,01,59,6.20
2006,04,23,02,00,6.20
2006,04,23,02,01,6.20
2006,04,23,02,02,6.20
2006,04,23,02,03,6.20
2006,04,23,02,04,6.20
2006,04,23,02,05,6.30
2006,04,23,02,06,6.30
2006,04,23,02,07,6.30
2006,04,23,02,08,6.40
2006,04,23,02,09,6.40
2006,04,23,02,10,6.40
2006,04,23,02,11,6.40
2006,04,23,02,12,6.50
2006,04,23,02,13,6.60
2006,04,23,02,14,6.60
2006,04,23,02,15,6.70
2006,04,23,02,16,6.80
2006,04,23,02,17,7.00
2006,04,23,02,18,7.10
2006,04,23,02,19,7.20
2006,04,23,02,20,7.30
2006,04,23,02,21,7.40
2006,04,23,02,22,7.50
2006,04,23,02,23,7.60
2006,04,23,02,24,7.70
2006,04,23,02,25,7.80
2006,04,23,02,26,7.80
2006,04,23,02,27,7.90
2006,04,23,02,28,7.90
2006,04,23,02,29,8.00
2006,04,23,02,30,8.00
2006,04,23,02,31,8.10
2006,04,23,02,32,8.10
2006,04,23,02,33,8.20
2006,04,23,02,34,8.20
2006,04,23,02,35,8.20
2006,04,23,02,36,8.20
2006,04,23,02,37,8.20
2006,04,23,02,38,8.00
2006,04,23,02,39,7.80
2006,04,23,02,40,7.60
2006,04,23,02,41,7.30
2006,04,23,02,42,7.00
2006,04,23,02,43,6.70
2006,04,23,02,44,6.50
2006,04,23,02,45,6.20
2006,04,23,02,46,6.10
2006,04,23,02,47,5.90
2006,04,23,02,48,5.80
2006,04,23,02,49,5.80
2006,04,23,02,50,5.80
2006,04,23,02,51,5.90
2006,04,23,02,52,6.00
2006,04,23,02,53,6.20
2006,04,23,02,54,6.30
2006,04,23,02,55,6.50
2006,04,23,02,56,6.60
2006,04,23,02,57,6.70
2006,04,23,02,58,6.90
2006,04,23,02,59,7.10
2006,04,23,03,00,7.20
2006,04,23,03,01,7.30
2006,04,23,03,02,7.50
2006,04,23,03,03,7.60
2006,04,23,03,04,7.70
2006,04,23,03,05,7.80
2006,04,23,03,06,7.80
2006,04,23,03,07,7.80
2006,04,23,03,08,7.80
2006,04,23,03,09,7.80
2006,04,23,03,10,7.80
2006,04,23,03,11,7.80
2006,04,23,03,12,7.70
2006,04,23,03,13,7.80
2006,04,23,03,14,7.80
2006,04,23,03,15,7.80
2006,04,23,03,16,7.80
2006,04,23,03,17,7.80
2006,04,23,03,18,7.80
2006,04,23,03,19,7.80
2006,04,23,03,20,7.90
2006,04,23,03,21,7.90
2006,04,23,03,22,7.90
2006,04,23,03,23,8.00
2006,04,23,03,24,8.00
2006,04,23,03,25,8.10
2006,04,23,03,26,8.10
2006,04,23,03,27,8.10
2006,04,23,03,28,8.20
2006,04,23,03,29,8.20
2006,04,23,03,30,8.20
2006,04,23,03,31,8.20
2006,04,23,03,32,8.20
2006,04,23,03,33,8.20
2006,04,23,03,34,8.30
2006,04,23,03,35,8.30
2006,04,23,03,36,8.30
2006,04,23,03,37,8.30
2006,04,23,03,38,8.40
2006,04,23,03,39,8.40
2006,04,23,03,40,8.40
2006,04,23,03,41,8.40
2006,04,23,03,42,8.40
2006,04,23,03,43,8.40
2006,04,23,03,44,8.40
2006,04,23,03,45,8.40
2006,04,23,03,46,8.40
2006,04,23,03,47,8.40
2006,04,23,03,48,8.40
2006,04,23,03,49,8.40
2006,04,23,03,50,8.40
2006,04,23,03,51,8.40
2006,04,23,03,52,8.40
2006,04,23,03,53,8.30
2006,04,23,03,54,8.30
2006,04,23,03,55,8.30
2006,04,23,03,56,8.20
2006,04,23,03,57,8.20
2006,04,23,03,58,8.20
2006,04,23,03,59,8.20
2006,04,23,04,00,8.10
2006,04,23,04,01,8.10
2006,04,23,04,02,8.00
2006,04,23,04,03,8.00
2006,04,23,04,04,8.10
2006,04,23,04,05,8.10
2006,04,23,04,06,8.20
2006,04,23,04,07,8.30
2006,04,23,04,08,8.40
2006,04,23,04,09,8.40
2006,04,23,04,10,8.50
2006,04,23,04,11,8.50
2006,04,23,04,12,8.50
2006,04,23,04,13,8.40
2006,04,23,04,14,8.30
2006,04,23,04,15,8.20
2006,04,23,04,16,8.20
2006,04,23,04,17,8.20
2006,04,23,04,18,8.20
2006,04,23,04,19,8.20
2006,04,23,04,20,8.20
2006,04,23,04,21,8.20
2006,04,23,04,22,8.20
2006,04,23,04,23,8.20
2006,04,23,04,24,8.20
2006,04,23,04,25,8.20
2006,04,23,04,26,8.20
2006,04,23,04,27,8.20
2006,04,23,04,28,8.20
2006,04,23,04,29,8.20
2006,04,23,04,30,8.20
2006,04,23,04,31,8.20
2006,04,23,04,32,8.20
2006,04,23,04,33,8.20
2006,04,23,04,34,8.20
2006,04,23,04,35,8.20
2006,04,23,04,36,8.30
2006,04,23,04,37,8.50
2006,04,23,04,38,8.60
2006,04,23,04,39,8.70
2006,04,23,04,40,8.90
2006,04,23,04,41,9.00
2006,04,23,04,42,9.10
2006,04,23,04,43,9.20
2006,04,23,04,44,9.20
2006,04,23,04,45,9.30
2006,04,23,04,46,9.30
2006,04,23,04,47,9.30
2006,04,23,04,48,9.20
2006,04,23,04,49,9.20
2006,04,23,04,50,9.20
2006,04,23,04,51,9.20
2006,04,23,04,52,9.20
2006,04,23,04,53,9.20
2006,04,23,04,54,9.20
2006,04,23,04,55,9.20
2006,04,23,04,56,9.20
2006,04,23,04,57,9.20
2006,04,23,04,58,9.20
2006,04,23,04,59,9.20
2006,04,23,05,00,9.20
2006,04,23,05,01,9.20
2006,04,23,05,02,9.20
2006,04,23,05,03,9.20
2006,04,23,05,04,9.20
2006,04,23,05,05,9.10
2006,04,23,05,06,9.10
2006,04,23,05,07,9.10
2006,04,23,05,08,9.10
2006,04,23,05,09,9.10
2006,04,23,05,10,9.10
2006,04,23,05,11,9.10
2006,04,23,05,12,9.10
2006,04,23,05,13,9.10
2006,04,23,05,14,9.20
2006,04,23,05,15,9.20
2006,04,23,05,16,9.20
2006,04,23,05,17,9.20
2006,04,23,05,18,9.20
2006,04,23,05,19,9.20
2006,04,23,05,20,9.20
2006,04,23,05,21,9.20
2006,04,23,05,22,9.20
2006,04,23,05,23,9.20
2006,04,23,05,24,9.10
2006,04,23,05,25,9.10
2006,04,23,05,26,9.10
2006,04,23,05,27,9.00
2006,04,23,05,28,9.00
2006,04,23,05,29,9.00
2006,04,23,05,30,9.00
2006,04,23,05,31,9.00
2006,04,23,05,32,9.00
2006,04,23,05,33,9.00
2006,04,23,05,34,9.00
2006,04,23,05,35,9.00
2006,04,23,05,36,9.00
2006,04,23,05,37,8.90
2006,04,23,05,38,8.90
2006,04,23,05,39,8.80
2006,04,23,05,40,8.70
2006,04,23,05,41,8.70
2006,04,23,05,42,8.70
2006,04,23,05,43,8.70
2006,04,23,05,44,8.70
2006,04,23,05,45,8.70
2006,04,23,05,46,8.70
2006,04,23,05,47,8.70
2006,04,23,05,48,8.70
2006,04,23,05,49,8.70
2006,04,23,05,50,8.70
2006,04,23,05,51,8.70
2006,04,23,05,52,8.70
2006,04,23,05,53,8.60
2006,04,23,05,54,8.60
2006,04,23,05,55,8.60
2006,04,23,05,56,8.60
2006,04,23,05,57,8.60
2006,04,23,05,58,8.70
2006,04,23,05,59,8.70
2006,04,23,06,00,8.70
2006,04,23,06,01,8.70
2006,04,23,06,02,8.70
2006,04,23,06,03,8.70
2006,04,23,06,04,8.70
2006,04,23,06,05,8.70
2006,04,23,06,06,8.80
2006,04,23,06,07,8.80
2006,04,23,06,08,8.80
2006,04,23,06,09,8.80
2006,04,23,06,10,8.90
2006,04,23,06,11,8.90
2006,04,23,06,12,8.90
2006,04,23,06,13,8.90
2006,04,23,06,14,8.90
2006,04,23,06,15,8.90
2006,04,23,06,16,8.90
2006,04,23,06,17,8.90
2006,04,23,06,18,8.90
2006,04,23,06,19,8.90
2006,04,23,06,20,8.90
2006,04,23,06,21,8.90
2006,04,23,06,22,9.00
2006,04,23,06,23,9.00
2006,04,23,06,24,9.00
2006,04,23,06,25,9.00
2006,04,23,06,26,9.00
2006,04,23,06,27,9.00
2006,04,23,06,28,9.00
2006,04,23,06,29,9.00
2006,04,23,06,30,9.00
2006,04,23,06,31,9.10
2006,04,23,06,32,9.10
2006,04,23,06,33,9.10
2006,04,23,06,34,9.10
2006,04,23,06,35,9.10
2006,04,23,06,36,9.10
2006,04,23,06,37,9.10
2006,04,23,06,38,9.10
2006,04,23,06,39,9.10
2006,04,23,06,40,9.00
2006,04,23,06,41,9.10
2006,04,23,06,42,9.10
2006,04,23,06,43,9.10
2006,04,23,06,44,9.10
2006,04,23,06,45,9.10
2006,04,23,06,46,9.10
2006,04,23,06,47,9.10
2006,04,23,06,48,9.10
2006,04,23,06,49,9.20
2006,04,23,06,50,9.20
2006,04,23,06,51,9.20
2006,04,23,06,52,9.20
2006,04,23,06,53,9.20
2006,04,23,06,54,9.30
2006,04,23,06,55,9.30
2006,04,23,06,56,9.30
2006,04,23,06,57,9.30
2006,04,23,06,58,9.40
2006,04,23,06,59,9.40
2006,04,23,07,00,9.40
2006,04,23,07,01,9.50
2006,04,23,07,02,9.50
2006,04,23,07,03,9.60
2006,04,23,07,04,9.60
2006,04,23,07,05,9.60
2006,04,23,07,06,9.60
2006,04,23,07,07,9.60
2006,04,23,07,08,9.60
2006,04,23,07,09,9.60
2006,04,23,07,10,9.60
2006,04,23,07,11,9.60
2006,04,23,07,12,9.60
2006,04,23,07,13,9.60
2006,04,23,07,14,9.60
2006,04,23,07,15,9.60
2006,04,23,07,16,9.60
2006,04,23,07,17,9.60
2006,04,23,07,18,9.70
2006,04,23,07,19,9.70
2006,04,23,07,20,9.70
2006,04,23,07,21,9.70
2006,04,23,07,22,9.70
2006,04,23,07,23,9.70
2006,04,23,07,24,9.70
2006,04,23,07,25,9.70
2006,04,23,07,26,9.70
2006,04,23,07,27,9.80
2006,04,23,07,28,9.80
2006,04,23,07,29,9.80
2006,04,23,07,30,9.80
2006,04,23,07,31,9.90
2006,04,23,07,32,9.90
2006,04,23,07,33,10.00
2006,04,23,07,34,10.10
2006,04,23,07,35,10.10
2006,04,23,07,36,10.10
2006,04,23,07,37,10.20
2006,04,23,07,38,10.20
2006,04,23,07,39,10.20
2006,04,23,07,40,10.20
2006,04,23,07,41,10.20
2006,04,23,07,42,10.30
2006,04,23,07,43,10.30
2006,04,23,07,44,10.30
2006,04,23,07,45,10.30
2006,04,23,07,46,10.40
2006,04,23,07,47,10.40
2006,04,23,07,48,10.40
2006,04,23,07,49,10.40
2006,04,23,07,50,10.40
2006,04,23,07,51,10.40
2006,04,23,07,52,10.50
2006,04,23,07,53,10.60
2006,04,23,07,54,10.60
2006,04,23,07,55,10.60
2006,04,23,07,56,10.60
2006,04,23,07,57,10.60
2006,04,23,07,58,10.70
2006,04,23,07,59,10.70
2006,04,23,08,00,10.70
2006,04,23,08,01,10.70
2006,04,23,08,02,10.80
2006,04,23,08,03,10.80
2006,04,23,08,04,10.80
2006,04,23,08,05,10.90
2006,04,23,08,06,10.90
2006,04,23,08,07,10.90
2006,04,23,08,08,10.90
2006,04,23,08,09,10.90
2006,04,23,08,10,10.90
2006,04,23,08,11,10.90
2006,04,23,08,12,11.10
2006,04,23,08,13,11.10
2006,04,23,08,14,11.10
2006,04,23,08,15,11.10
2006,04,23,08,16,11.10
2006,04,23,08,17,11.10
2006,04,23,08,18,11.10
2006,04,23,08,19,11.10
2006,04,23,08,20,11.10
2006,04,23,08,21,11.10
2006,04,23,08,22,11.20
2006,04,23,08,23,11.20
2006,04,23,08,24,11.30
2006,04,23,08,25,11.30
2006,04,23,08,26,11.40
2006,04,23,08,27,11.40
2006,04,23,08,28,11.40
2006,04,23,08,29,11.40
2006,04,23,08,30,11.40
2006,04,23,08,31,11.40
2006,04,23,08,32,11.40
2006,04,23,08,33,11.50
2006,04,23,08,34,11.60
2006,04,23,08,35,11.60
2006,04,23,08,36,11.60
2006,04,23,08,37,11.70
2006,04,23,08,38,11.70
2006,04,23,08,39,11.80
2006,04,23,08,40,11.80
2006,04,23,08,41,11.80
2006,04,23,08,42,11.90
2006,04,23,08,43,11.90
2006,04,23,08,44,12.00
2006,04,23,08,45,12.00
2006,04,23,08,46,12.00
2006,04,23,08,47,12.00
2006,04,23,08,48,12.10
2006,04,23,08,49,12.10
2006,04,23,08,50,12.10
2006,04,23,08,51,12.10
2006,04,23,08,52,12.20
2006,04,23,08,53,12.20
2006,04,23,08,54,12.20
2006,04,23,08,55,12.30
2006,04,23,08,56,12.30
2006,04,23,08,57,12.30
2006,04,23,08,58,12.30
2006,04,23,08,59,12.30
2006,04,23,09,00,12.30
2006,04,23,09,01,12.30
2006,04,23,09,02,12.30
2006,04,23,09,03,12.30
2006,04,23,09,04,12.30
2006,04,23,09,05,12.40
2006,04,23,09,06,12.40
2006,04,23,09,07,12.40
2006,04,23,09,08,12.50
2006,04,23,09,09,12.50
2006,04,23,09,10,12.60
2006,04,23,09,11,12.60
2006,04,23,09,12,12.70
2006,04,23,09,13,12.70
2006,04,23,09,14,12.80
2006,04,23,09,15,12.80
2006,04,23,09,16,12.80
2006,04,23,09,17,12.80
2006,04,23,09,18,12.80
2006,04,23,09,19,12.80
2006,04,23,09,20,12.80
2006,04,23,09,21,12.80
2006,04,23,09,22,12.80
2006,04,23,09,23,12.80
2006,04,23,09,24,12.70
2006,04,23,09,25,12.70
2006,04,23,09,26,12.80
2006,04,23,09,27,12.80
2006,04,23,09,28,12.80
2006,04,23,09,29,12.80
2006,04,23,09,30,12.80
2006,04,23,09,31,12.80
2006,04,23,09,32,12.80
2006,04,23,09,33,12.80
2006,04,23,09,34,12.70
2006,04,23,09,35,12.80
2006,04,23,09,36,12.80
2006,04,23,09,37,12.80
2006,04,23,09,38,12.80
2006,04,23,09,39,12.90
2006,04,23,09,40,13.00
2006,04,23,09,41,13.00
2006,04,23,09,42,13.10
2006,04,23,09,43,13.00
2006,04,23,09,44,13.00
2006,04,23,09,45,13.00
2006,04,23,09,46,12.90
2006,04,23,09,47,12.90
2006,04,23,09,48,12.90
2006,04,23,09,49,12.90
2006,04,23,09,50,12.80
2006,04,23,09,51,12.80
2006,04,23,09,52,12.80
2006,04,23,09,53,12.90
2006,04,23,09,54,12.90
2006,04,23,09,55,12.90
2006,04,23,09,56,13.00
2006,04,23,09,57,13.00
2006,04,23,09,58,13.00
2006,04,23,09,59,13.00
2006,04,23,10,00,13.10
2006,04,23,10,01,13.10
2006,04,23,10,02,13.10
2006,04,23,10,03,13.00
2006,04,23,10,04,13.00
2006,04,23,10,05,13.10
2006,04,23,10,06,13.10
2006,04,23,10,07,13.10
2006,04,23,10,08,13.20
2006,04,23,10,09,13.20
2006,04,23,10,10,13.20
2006,04,23,10,11,13.20
2006,04,23,10,12,13.20
2006,04,23,10,13,13.20
2006,04,23,10,14,13.20
2006,04,23,10,15,13.20
2006,04,23,10,16,13.30
2006,04,23,10,17,13.30
2006,04,23,10,18,13.30
2006,04,23,10,19,13.20
2006,04,23,10,20,13.10
2006,04,23,10,21,13.00
2006,04,23,10,22,12.90
2006,04,23,10,23,12.90
2006,04,23,10,24,13.00
2006,04,23,10,25,13.00
2006,04,23,10,26,12.90
2006,04,23,10,27,12.80
2006,04,23,10,28,12.80
2006,04,23,10,29,12.90
2006,04,23,10,30,12.90
2006,04,23,10,31,12.90
2006,04,23,10,32,13.00
2006,04,23,10,33,13.10
2006,04,23,10,34,13.20
2006,04,23,10,35,13.30
2006,04,23,10,36,13.30
2006,04,23,10,37,13.30
2006,04,23,10,38,13.30
2006,04,23,10,39,13.20
2006,04,23,10,40,13.20
2006,04,23,10,41,13.20
2006,04,23,10,42,13.10
2006,04,23,10,43,13.10
2006,04,23,10,44,13.00
2006,04,23,10,45,13.00
2006,04,23,10,46,13.00
2006,04,23,10,47,13.00
2006,04,23,10,48,13.10
2006,04,23,10,49,13.20
2006,04,23,10,50,13.20
2006,04,23,10,51,13.30
2006,04,23,10,52,13.30
2006,04,23,10,53,13.30
2006,04,23,10,54,13.30
2006,04,23,10,55,13.30
2006,04,23,10,56,13.30
2006,04,23,10,57,13.40
2006,04,23,10,58,13.40
2006,04,23,10,59,13.40
2006,04,23,11,00,13.50
2006,04,23,11,01,13.50
2006,04,23,11,02,13.60
2006,04,23,11,03,13.60
2006,04,23,11,04,13.60
2006,04,23,11,05,13.60
2006,04,23,11,06,13.60
2006,04,23,11,07,13.50
2006,04,23,11,08,13.50
2006,04,23,11,09,13.50
2006,04,23,11,10,13.50
2006,04,23,11,11,13.40
2006,04,23,11,12,13.30
2006,04,23,11,13,13.40
2006,04,23,11,14,13.50
2006,04,23,11,15,13.70
2006,04,23,11,16,13.70
2006,04,23,11,17,13.80
2006,04,23,11,18,13.80
2006,04,23,11,19,13.80
2006,04,23,11,20,13.90
2006,04,23,11,21,13.90
2006,04,23,11,22,13.90
2006,04,23,11,23,14.00
2006,04,23,11,24,14.00
2006,04,23,11,25,13.90
2006,04,23,11,26,13.70
2006,04,23,11,27,13.70
2006,04,23,11,28,13.80
2006,04,23,11,29,13.80
2006,04,23,11,30,13.90
2006,04,23,11,31,13.90
2006,04,23,11,32,13.90
2006,04,23,11,33,13.90
2006,04,23,11,34,13.90
2006,04,23,11,35,13.90
2006,04,23,11,36,13.80
2006,04,23,11,37,13.80
2006,04,23,11,38,13.90
2006,04,23,11,39,13.80
2006,04,23,11,40,13.80
2006,04,23,11,41,13.80
2006,04,23,11,42,13.80
2006,04,23,11,43,13.80
2006,04,23,11,44,13.90
2006,04,23,11,45,14.00
2006,04,23,11,46,14.10
2006,04,23,11,47,14.20
2006,04,23,11,48,14.20
2006,04,23,11,49,14.20
2006,04,23,11,50,14.00
2006,04,23,11,51,14.00
2006,04,23,11,52,14.00
2006,04,23,11,53,14.00
2006,04,23,11,54,14.00
2006,04,23,11,55,14.00
2006,04,23,11,56,14.10
2006,04,23,11,57,14.30
2006,04,23,11,58,14.50
2006,04,23,11,59,14.50
2006,04,23,12,00,14.50
2006,04,23,12,01,14.50
2006,04,23,12,02,14.50
2006,04,23,12,03,14.40
2006,04,23,12,04,14.20
2006,04,23,12,05,14.20
2006,04,23,12,06,14.20
2006,04,23,12,07,14.30
2006,04,23,12,08,14.50
2006,04,23,12,09,14.60
2006,04,23,12,10,14.60
2006,04,23,12,11,14.60
2006,04,23,12,12,14.50
2006,04,23,12,13,14.50
2006,04,23,12,14,14.50
2006,04,23,12,15,14.50
2006,04,23,12,16,14.50
2006,04,23,12,17,14.60
2006,04,23,12,18,14.60
2006,04,23,12,19,14.50
2006,04,23,12,20,14.50
2006,04,23,12,21,14.60
2006,04,23,12,22,14.70
2006,04,23,12,23,14.80
2006,04,23,12,24,14.80
2006,04,23,12,25,14.90
2006,04,23,12,26,15.00
2006,04,23,12,27,15.00
2006,04,23,12,28,15.10
2006,04,23,12,29,15.10
2006,04,23,12,30,15.00
2006,04,23,12,31,14.90
2006,04,23,12,32,14.90
2006,04,23,12,33,15.00
2006,04,23,12,34,15.00
2006,04,23,12,35,15.10
2006,04,23,12,36,15.10
2006,04,23,12,37,15.20
2006,04,23,12,38,15.30
2006,04,23,12,39,15.20
2006,04,23,12,40,15.10
2006,04,23,12,41,15.10
2006,04,23,12,42,15.20
2006,04,23,12,43,15.20
2006,04,23,12,44,15.30
2006,04,23,12,45,15.30
2006,04,23,12,46,15.50
2006,04,23,12,47,15.50
2006,04,23,12,48,15.60
2006,04,23,12,49,15.60
2006,04,23,12,50,15.60
2006,04,23,12,51,15.50
2006,04,23,12,52,15.50
2006,04,23,12,53,15.50
2006,04,23,12,54,15.50
2006,04,23,12,55,15.40
2006,04,23,12,56,15.30
2006,04,23,12,57,15.30
2006,04,23,12,58,15.20
2006,04,23,12,59,15.20
2006,04,23,13,00,15.30
2006,04,23,13,01,15.30
2006,04,23,13,02,15.30
2006,04,23,13,03,15.50
2006,04,23,13,04,15.50
2006,04,23,13,05,15.50
2006,04,23,13,06,15.60
2006,04,23,13,07,15.60
2006,04,23,13,08,15.70
2006,04,23,13,09,15.60
2006,04,23,13,10,15.60
2006,04,23,13,11,15.80
2006,04,23,13,12,15.80
2006,04,23,13,13,16.00
2006,04,23,13,14,16.10
2006,04,23,13,15,16.10
2006,04,23,13,16,16.10
2006,04,23,13,17,16.10
2006,04,23,13,18,16.00
2006,04,23,13,19,15.90
2006,04,23,13,20,15.90
2006,04,23,13,21,16.10
2006,04,23,13,22,16.10
2006,04,23,13,23,16.10
2006,04,23,13,24,16.20
2006,04,23,13,25,16.30
2006,04,23,13,26,16.30
2006,04,23,13,27,16.30
2006,04,23,13,28,16.20
2006,04,23,13,29,16.20
2006,04,23,13,30,16.10
2006,04,23,13,31,16.20
2006,04,23,13,32,16.30
2006,04,23,13,33,16.30
2006,04,23,13,34,16.30
2006,04,23,13,35,16.30
2006,04,23,13,36,16.30
2006,04,23,13,37,16.20
2006,04,23,13,38,16.30
2006,04,23,13,39,16.30
2006,04,23,13,40,16.40
2006,04,23,13,41,16.40
2006,04,23,13,42,16.40
2006,04,23,13,43,16.40
2006,04,23,13,44,16.30
2006,04,23,13,45,16.30
2006,04,23,13,46,16.30
2006,04,23,13,47,16.40
2006,04,23,13,48,16.60
2006,04,23,13,49,16.50
2006,04,23,13,50,16.40
2006,04,23,13,51,16.40
2006,04,23,13,52,16.40
2006,04,23,13,53,16.50
2006,04,23,13,54,16.70
2006,04,23,13,55,16.80
2006,04,23,13,56,16.90
2006,04,23,13,57,16.90
2006,04,23,13,58,16.90
2006,04,23,13,59,16.80
2006,04,23,14,00,16.90
2006,04,23,14,01,17.00
2006,04,23,14,02,16.90
2006,04,23,14,03,16.80
2006,04,23,14,04,16.70
2006,04,23,14,05,16.70
2006,04,23,14,06,16.70
2006,04,23,14,07,16.70
2006,04,23,14,08,16.80
2006,04,23,14,09,16.90
2006,04,23,14,10,17.00
2006,04,23,14,11,17.10
2006,04,23,14,12,17.10
2006,04,23,14,13,17.10
2006,04,23,14,14,17.10
2006,04,23,14,15,17.20
2006,04,23,14,16,17.20
2006,04,23,14,17,17.20
2006,04,23,14,18,17.20
2006,04,23,14,19,17.20
2006,04,23,14,20,17.20
2006,04,23,14,21,17.10
2006,04,23,14,22,17.00
2006,04,23,14,23,16.90
2006,04,23,14,24,16.90
2006,04,23,14,25,16.90
2006,04,23,14,26,17.00
2006,04,23,14,27,17.00
2006,04,23,14,28,17.10
2006,04,23,14,29,17.10
2006,04,23,14,30,17.10
2006,04,23,14,31,17.10
2006,04,23,14,32,17.00
2006,04,23,14,33,17.00
2006,04,23,14,34,17.00
2006,04,23,14,35,17.00
2006,04,23,14,36,17.00
2006,04,23,14,37,17.10
2006,04,23,14,38,17.10
2006,04,23,14,39,17.10
2006,04,23,14,40,17.20
2006,04,23,14,41,17.30
2006,04,23,14,42,17.30
2006,04,23,14,43,17.30
2006,04,23,14,44,17.30
2006,04,23,14,45,17.40
2006,04,23,14,46,17.40
2006,04,23,14,47,17.40
2006,04,23,14,48,17.40
2006,04,23,14,49,17.50
2006,04,23,14,50,17.50
2006,04,23,14,51,17.50
2006,04,23,14,52,17.60
2006,04,23,14,53,17.50
2006,04,23,14,54,17.50
2006,04,23,14,55,17.50
2006,04,23,14,56,17.60
2006,04,23,14,57,17.60
2006,04,23,14,58,17.60
2006,04,23,14,59,17.60
2006,04,23,15,00,17.70
2006,04,23,15,01,17.80
2006,04,23,15,02,17.80
2006,04,23,15,03,17.80
2006,04,23,15,04,17.80
2006,04,23,15,05,17.90
2006,04,23,15,06,17.90
2006,04,23,15,07,17.90
2006,04,23,15,08,17.90
2006,04,23,15,09,18.00
2006,04,23,15,10,18.10
2006,04,23,15,11,18.10
2006,04,23,15,12,18.10
2006,04,23,15,13,18.20
2006,04,23,15,14,18.20
2006,04,23,15,15,18.20
2006,04,23,15,16,18.30
2006,04,23,15,17,18.30
2006,04,23,15,18,18.30
2006,04,23,15,19,18.30
2006,04,23,15,20,18.20
2006,04,23,15,21,18.20
2006,04,23,15,22,18.20
2006,04,23,15,23,18.10
2006,04,23,15,24,18.10
2006,04,23,15,25,18.10
2006,04,23,15,26,18.10
2006,04,23,15,27,18.20
2006,04,23,15,28,18.20
2006,04,23,15,29,18.20
2006,04,23,15,30,18.30
2006,04,23,15,31,18.40
2006,04,23,15,32,18.50
2006,04,23,15,33,18.60
2006,04,23,15,34,18.70
2006,04,23,15,35,18.70
2006,04,23,15,36,18.70
2006,04,23,15,37,18.80
2006,04,23,15,38,18.90
2006,04,23,15,39,19.00
2006,04,23,15,40,19.10
2006,04,23,15,41,19.20
2006,04,23,15,42,19.40
2006,04,23,15,43,19.50
2006,04,23,15,44,19.40
2006,04,23,15,45,19.30
2006,04,23,15,46,19.30
2006,04,23,15,47,19.20
2006,04,23,15,48,19.10
2006,04,23,15,49,19.10
2006,04,23,15,50,19.00
2006,04,23,15,51,18.90
2006,04,23,15,52,18.90
2006,04,23,15,53,18.90
2006,04,23,15,54,18.90
2006,04,23,15,55,18.90
2006,04,23,15,56,18.90
2006,04,23,15,57,18.90
2006,04,23,15,58,18.90
2006,04,23,15,59,19.00
2006,04,23,16,00,19.10
2006,04,23,16,01,19.30
2006,04,23,16,02,19.30
2006,04,23,16,03,19.30
2006,04,23,16,04,19.40
2006,04,23,16,05,19.40
2006,04,23,16,06,19.50
2006,04,23,16,07,19.50
2006,04,23,16,08,19.60
2006,04,23,16,09,19.60
2006,04,23,16,10,19.70
2006,04,23,16,11,19.70
2006,04,23,16,12,19.80
2006,04,23,16,13,19.80
2006,04,23,16,14,19.80
2006,04,23,16,15,19.80
2006,04,23,16,16,19.90
2006,04,23,16,17,19.90
2006,04,23,16,18,19.90
2006,04,23,16,19,19.90
2006,04,23,16,20,19.90
2006,04,23,16,21,19.90
2006,04,23,16,22,19.90
2006,04,23,16,23,19.80
2006,04,23,16,24,19.70
2006,04,23,16,25,19.60
2006,04,23,16,26,19.50
2006,04,23,16,27,19.50
2006,04,23,16,28,19.50
2006,04,23,16,29,19.40
2006,04,23,16,30,19.40
2006,04,23,16,31,19.40
2006,04,23,16,32,19.40
2006,04,23,16,33,19.40
2006,04,23,16,34,19.40
2006,04,23,16,35,19.40
2006,04,23,16,36,19.40
2006,04,23,16,37,19.50
2006,04,23,16,38,19.50
2006,04,23,16,39,19.50
2006,04,23,16,40,19.60
2006,04,23,16,41,19.70
2006,04,23,16,42,19.70
2006,04,23,16,43,19.70
2006,04,23,16,44,19.80
2006,04,23,16,45,19.80
2006,04,23,16,46,19.80
2006,04,23,16,47,19.80
2006,04,23,16,48,19.70
2006,04,23,16,49,19.70
2006,04,23,16,50,19.70
2006,04,23,16,51,19.70
2006,04,23,16,52,19.70
2006,04,23,16,53,19.60
2006,04,23,16,54,19.60
2006,04,23,16,55,19.60
2006,04,23,16,56,19.60
2006,04,23,16,57,19.70
2006,04,23,16,58,19.80
2006,04,23,16,59,19.80
2006,04,23,17,00,19.90
2006,04,23,17,01,19.90
2006,04,23,17,02,19.90
2006,04,23,17,03,19.90
2006,04,23,17,04,19.90
2006,04,23,17,05,19.80
2006,04,23,17,06,19.80
2006,04,23,17,07,19.80
2006,04,23,17,08,19.80
2006,04,23,17,09,19.70
2006,04,23,17,10,19.70
2006,04,23,17,11,19.70
2006,04,23,17,12,19.70
2006,04,23,17,13,19.60
2006,04,23,17,14,19.60
2006,04,23,17,15,19.60
2006,04,23,17,16,19.60
2006,04,23,17,17,19.60
2006,04,23,17,18,19.60
2006,04,23,17,19,19.50
2006,04,23,17,20,19.40
2006,04,23,17,21,19.40
2006,04,23,17,22,19.40
2006,04,23,17,23,19.40
2006,04,23,17,24,19.50
2006,04,23,17,25,19.60
2006,04,23,17,26,19.70
2006,04,23,17,27,19.70
2006,04,23,17,28,19.70
2006,04,23,17,29,19.70
2006,04,23,17,30,19.70
2006,04,23,17,31,19.70
2006,04,23,17,32,19.80
2006,04,23,17,33,19.90
2006,04,23,17,34,19.80
2006,04,23,17,35,19.80
2006,04,23,17,36,19.80
2006,04,23,17,37,19.80
2006,04,23,17,38,19.80
2006,04,23,17,39,19.80